Location: Cuzcurrita-R�o Tir�n
(42.5415°N, 2.9642°W)
Time: 08:46:02
(UTC+00:00)

ATLAS 3B R/B - Pass Details

Date: 27 February 2020
Orbit: 1029 x 1166 km, 63.8° (Epoch: 12 March)

Event Time Altitude Azimuth Distance (km) Brightness Sun altitude
Rises 19:25:15 0° 325° (NW) 3,793 6.2 -16.8°
Reaches altitude 10° 19:28:56 10° 345° (NNW) 2,851 5.2 -17.4°
Maximum altitude 19:33:15 18° 25° (NNE) 2,357 4.3 -18.2°
Enters shadow 19:35:30 15° 49° (NE) 2,515 4.3 -18.6°
